Weather Roundup
Issued by NWS

Home | Current Version | Previous Version | Text Only | Print | Product List | Glossary On
Versions: 1 2 3 4 5 6 7 8 9 10 11 12 13 14 15 16 17 18 19 20 21 22 23 24 25 26 27 28 29 30 31 32 33 34 35 36 37 38 39 40 41 42 43 44 45 46 47 48 49 50
000
NZUS93 KARX 010159
HRRWXR

CURRENT HOURLY OBSERVATIONS ACROSS
MUCH OF THE UPPER MISSISSIPPI VALLEY
NATIONAL WEATHER SERVICE LA CROSSE WI
900 PM CDT THU JUL 31 2014


...SOUTHEAST MINNESOTA...


CITY           SKY/WX    TMP DP  RH WIND       PRES   REMARKS
ROCHESTER      CLEAR     67  59  75 W6        30.04R
ROCHESTER/MAYO FAIR      73  54  50 W5        30.03R
WINONA         CLEAR     70  59  68 CALM      30.01R
AUSTIN         CLEAR     70  55  60 CALM      30.03S
ALBERT LEA     CLEAR     68  59  73 CALM      30.03S
DODGE CENTER   PTCLDY    68  61  77 W3        30.03S
PRESTON        CLEAR     68  62  79 W6        30.04S
OWATONNA       CLEAR     66  59  77 CALM      30.03R
FARIBAULT      CLEAR     68  59  73 CALM      30.02S
$$

...ELSEWHERE IN MINNESOTA...


CITY           SKY/WX    TMP DP  RH WIND       PRES   REMARKS
MINNEAPOLIS    CLEAR     76  55  48 W5        29.99S
INTNL FALLS    PTCLDY    61  57  87 CALM      29.98S
DULUTH         CLEAR     70  57  63 NW5       29.99R
RED WING       CLEAR     70  63  78 CALM      29.98S
REDWOOD FALLS  CLEAR     74  58  57 W3        30.02R
MANKATO        CLEAR     73  54  49 CALM      30.02S
WORTHINGTON    MOCLDY    70  61  73 N3        30.06S
FAIRMONT       PTCLDY    72  57  60 CALM      30.04R
$$

...SOUTHWEST WISCONSIN...


CITY           SKY/WX    TMP DP  RH WIND       PRES   REMARKS
LA CROSSE      CLEAR     75  61  61 SW3       30.00R
PRAIRIE DU CHI CLEAR     70  59  69 CALM      30.01S
BOSCOBEL       CLEAR     68  62  81 CALM      30.02R
LONE ROCK      NOT AVBL
PLATTEVILLE    CLEAR     71  59  64 SW3       30.04S
FORT MC COY    CLEAR     66  60  80 CALM      30.02S
VIROQUA        FAIR      68  60  77 CALM      30.03S
WIS DELLS      PTCLDY    70  56  62 CALM      30.02S
$$

...ELSEWHERE IN WISCONSIN...


CITY           SKY/WX    TMP DP  RH WIND       PRES   REMARKS
MILWAUKEE      PTCLDY    76  58  53 W5        30.01R
MADISON        MOCLDY    70  59  68 CALM      30.02R
GREEN BAY      PTCLDY    67  63  87 W5        29.97S
EAU CLAIRE     NOT AVBL
BLACK RVR FLS  FAIR      69  61  76 CALM      30.00R
MEDFORD        PTCLDY    64  60  87 SW3       30.01S
WAUSAU         PTCLDY    69  61  75 W6        29.98S
WIS RAPIDS     PTCLDY    69  60  73 W5        30.02R
MARSHFIELD     MOCLDY    69  61  75 W5        30.00S
RICE LAKE      MOCLDY    69  62  78 CALM      30.01S
$$

...NORTHEAST IOWA...


CITY           SKY/WX    TMP DP  RH WIND       PRES   REMARKS
WATERLOO       CLEAR     71  59  65 CALM      30.02R
DUBUQUE        CLEAR     68  61  78 CALM      30.04S
DECORAH        CLEAR     72  55  56 CALM      30.02S
MASON CITY     CLEAR     67  61  81 CALM      30.05R
CHARLES CITY   CLEAR     68  64  88 CALM      30.04S
OELWEIN        PTCLDY    72  61  68 CALM      30.04S
$$

...ELSEWHERE IN IOWA...


CITY           SKY/WX    TMP DP  RH WIND       PRES   REMARKS
DES MOINES     CLOUDY    71  63  75 CALM      30.03F
IOWA CITY      CLEAR     69  63  81 CALM      30.04S
FORT DODGE     PTCLDY    66  61  82 CALM      30.05S
MARSHALLTOWN   PTCLDY    69  63  81 W3        30.03S
CEDAR RAPIDS   CLEAR     69  62  78 CALM      30.03S
$$

...NORTHERN ILLINOIS...


CITY           SKY/WX    TMP DP  RH WIND       PRES   REMARKS
CHICAGO-OHARE  PTCLDY    74  56  53 W5        30.02S
DUPAGE         CLEAR     71  60  68 SW5       30.03S
CHICAGO-MIDWAY PTCLDY    77  59  53 W6        30.03R
MOLINE         PTCLDY    71  62  73 CALM      30.03S
ROCKFORD       CLEAR     70  59  68 S3        30.05R
STERLING       CLEAR     64  57  77 CALM      30.04S
PEORIA         CLEAR     74  63  68 CALM      30.05S
$$

NOTE: "FAIR" INDICATES FEW OR NO CLOUDS BELOW 12,000 FEET WITH NO
SIGNIFICANT WEATHER AND/OR OBSTRUCTIONS TO VISIBILITY. WIND
SPEEDS ARE IN MILES-PER-HOUR.



USA.gov is the U.S. government's official web portal to all federal, state and local government web resources and services.